Showing default

BRISAT, 41591

Orbit data source: Space-Track

BRISAT, 41591 is a payload satellite owned by Bank Rakyat Id. (ID) in GEO that was launched on Sat, 18 Jun 2016 UTC via an ARIANE 5ECA launch vehicle from the French Guiana (FRGUI). Payload-class satellites include a variety of spacecraft equipped with specific instruments for various scientific and technological missions. These include communications satellites like Starlink; space stations such as the ISS; scientific satellites like the Hubble; Earth observation satellites from companies like Planet Labs, Umbra, and HawkEye 360; GPS; miniature CubeSats for education and research; and military/defense satellites.

Not visible in the next 10 days
Identifier
41591, 2016-039A
Orbit
GEO
Last TLE update
12 hours ago
Origin
Manufacturer
SS/Loral (MDA)
Mission
Operational Commercial Communications
Bus & Motor
SSL-1300, R-4D
Mass
3,540 kg wet, ~2,000 kg dry
Launch date (UTC)
2016-06-18 (9 years ago)
Launch vehicle
ARIANE 5ECA
Launch site
French Guiana (FRGUI)
Object type
Payload
Rocket body
Debris
Shape & HBR
Box + 2 Pan + 1 Dish, 31 m
Radar Cross Section
33.485 m², Large (>1 m²)

Expand to show TLE details & history

TLE from 12 hours ago
0 BRISAT
1 41591U 16039A   25128.72267080 -.00000193  00000-0  00000-0 0  9993
2 41591   0.0241 270.8744 0002190 132.5661 234.0030  1.00268672 32556
Epoch: 2025-05-08T17:20Z
Definitive object data (Epoch: 2025-05-08T17:20:38.757Z)
Latitude
0.00779°
Longitude
150.47°
Altitude
35,792.411 km
Speed
3.074 km/s
True Right ascension
18h 29m 40s
True Declination
0° 00' 28"
Sunlit
Object was in daylight at TLE epoch
Visualization TLE readout
Latitude
-0.00862°
Longitude
-27.82135°
Altitude
35,781.756 km
Speed
3.075 km/s
Apparent Right ascension
06h 11m 32s
Apparent Declination
-5° 20' 17"
Sunlit
Object is in daylight
Visualization observer readout
Local Sidereal Time
13:34:01
Azimuth
279.363° WNW
Elevation
-19.187°
Doppler factor
1
Orbital elements
Apogee altitude
35,797.773 km
Perigee altitude
35,779.304 km
Semi-major axis
42,166.675 km
Eccentricity
0.000219
Inclination
0.0241°
RAAN
270.8744°
Arg. of periapsis
132.5661°
True anomaly
233.9827°
Mean anomaly
234.003°
Eccentric anomaly
233.99285°
Mean motion
0.25066 °/min
BSTAR
Unknown
Orbital period
1436.19 mins
Loading historical data...
41591 neighbors
Loading maneuver chart data...
Loading SW <> Apogee altitude chart data...
Loading historical data...
Loading historical data...
Loading historical data...
Loading historical data...
Loading historical data...
Loading historical data...
Loading historical data...
Other satellites on launch #39 in the year 2016 (2016-06-18 UTC)

BRISAT Visibility forecast

Observer location: undefined°, undefined°

BRISAT is not visible in the next 10 days
Span
Click to sort rows by Start time (UTC) header in descending order
Start Az.
Max El. time (UTC)
Max El. Az.
Max El.
End time (UTC)
End Az.
|